Laramie, WY

12:50 PM MDT on September 24, 2017 (GMT -0600)
Laramie Regional

Weather History for KLAR - November, 2011

Change the Weather History Date:

Monday, November 28, 2011

  Actual Average Record
Temperature  
Mean Temperature 40 °F 24 °F  
Max Temperature 53 °F 35 °F 59 °F (1998)
Min Temperature 27 °F 13 °F -18 °F (1987)
Degree Days  
Heating Degree Days 25 41  
Month to date heating degree days 993 986  
Since 1 July heating degree days 2023 2229  
Cooling Degree Days 0 0  
Month to date cooling degree days 0 0  
Year to date cooling degree days 126 67  
Moisture  
Dew Point 15 °F    
Average Humidity 39    
Maximum Humidity 61    
Minimum Humidity 17    
Precipitation  
Precipitation 0.00 in 0.01 in 0.17 in (2010)
Month to date precipitation 0.25 0.51  
Year to date precipitation 10.20 10.57  
Sea Level Pressure  
Sea Level Pressure 30.19 in    
Wind  
Wind Speed 12 mph (West)    
Max Wind Speed 26 mph    
Max Gust Speed 36 mph    
Visibility 10 miles    
Events      
T = Trace of Precipitation, MM = Missing Value Source: NWS Daily Summary

Daily Weather History Graph

Daily Weather History Graph

Search for Another Location

Airport or City:

Trip Planner

Search our weather history database for the weather conditions in past years. The results will help you decide how hot, cold, wet, or windy it might be!

Date:

Astronomy

Nov. 28, 2011 Rise Set
Actual Time 7:05 AM MST 4:35 PM MST
Civil Twilight 6:35 AM MST 5:05 PM MST
Nautical Twilight 6:00 AM MST 5:39 PM MST
Astronomical Twilight 5:27 AM MST 6:13 PM MST
Moon 10:16 AM MST (11/28) 8:25 PM MST (11/28)
Length of Visible Light 10h 30m
Length of Day
9h 29m
Waxing Crescent, 16% of the Moon is Illuminated
Nov 28
Waxing Crescent
Dec 2
First Quarter
Dec 10
Full
Dec 17
Last Quarter
Dec 24
New

Hourly Weather History & Observations

Time (MST) Temp. Windchill Dew Point Humidity Pressure Visibility Wind Dir Wind Speed Gust Speed Precip Events Conditions
12:53 AM 35.1 °F 26.9 °F 12.9 °F 40% 30.17 in 10.0 mi SSW 11.5 mph - N/A   Clear
1:53 AM 39.9 °F 30.8 °F 12.9 °F 33% 30.12 in 10.0 mi West 18.4 mph - N/A   Clear
2:53 AM 39.9 °F 31.8 °F 12.0 °F 32% 30.12 in 10.0 mi WSW 15.0 mph - N/A   Clear
3:53 AM 39.9 °F 34.5 °F 12.0 °F 32% 30.15 in 10.0 mi South 8.1 mph - N/A   Clear
4:53 AM 39.0 °F 29.0 °F 12.0 °F 33% 30.16 in 10.0 mi SSW 20.7 mph - N/A   Clear
5:53 AM 37.0 °F 32.4 °F 12.0 °F 36% 30.18 in 10.0 mi WSW 5.8 mph - N/A   Clear
6:53 AM 37.9 °F 28.9 °F 12.0 °F 35% 30.18 in 10.0 mi SW 16.1 mph - N/A   Clear
7:53 AM 39.2 °F 33.6 °F 12.2 °F 33% 30.23 in 10.0 mi SW 8.1 mph - N/A   Clear
8:53 AM 48.9 °F - 10.9 °F 22% 30.13 in 10.0 mi West 26.5 mph 31.1 mph N/A   Clear
9:53 AM 51.8 °F - 8.6 °F 18% 30.26 in 10.0 mi Variable 6.9 mph 18.4 mph N/A   Clear
10:53 AM 53.1 °F - 10.9 °F 19% 30.13 in 10.0 mi NW 8.1 mph - N/A   Clear
11:53 AM 48.0 °F - 14.0 °F 26% 30.15 in 10.0 mi North 11.5 mph - N/A   Clear
12:53 PM 46.0 °F 38.8 °F 15.1 °F 29% 30.17 in 10.0 mi North 18.4 mph - N/A   Clear
1:53 PM 44.1 °F 35.9 °F 17.1 °F 34% 30.14 in 10.0 mi North 19.6 mph - N/A   Clear
2:53 PM 42.1 °F 34.9 °F 15.1 °F 34% 30.17 in - North 13.8 mph 24.2 mph N/A   Overcast
3:53 PM 41.0 °F 32.8 °F 15.1 °F 35% 30.17 in 10.0 mi North 16.1 mph - N/A   Overcast
4:53 PM 37.0 °F 31.6 °F 18.0 °F 46% 30.24 in 10.0 mi North 6.9 mph - N/A   Overcast
5:53 PM 37.0 °F 30.4 °F 17.1 °F 44% 30.26 in 10.0 mi North 9.2 mph - N/A   Overcast
6:53 PM 37.0 °F 33.3 °F 17.1 °F 44% 30.27 in 10.0 mi NNE 4.6 mph - N/A   Overcast
7:53 PM 39.0 °F 34.0 °F 19.0 °F 45% 30.25 in 10.0 mi NNW 6.9 mph - N/A   Overcast
8:53 PM 33.1 °F 27.7 °F 21.0 °F 61% 30.25 in 10.0 mi SSW 5.8 mph - N/A   Overcast
9:53 PM 34.0 °F 28.0 °F 21.0 °F 59% 30.22 in 10.0 mi South 6.9 mph - N/A   Overcast
10:53 PM 34.0 °F 25.5 °F 21.0 °F 59% 30.18 in 10.0 mi South 11.5 mph - N/A   Overcast
11:53 PM 28.0 °F 19.3 °F 19.9 °F 72% 30.24 in 10.0 mi SSE 9.2 mph - N/A   Clear